Hourly Data Report for July 12, 2021

WINNIPEG THE FORKS
MANITOBA
Current Station Operator: ECCC - MSC

49°53'18.008" N
97°07'46.007" W
230.00 m
5023262
71579
XWN

Download Data

Hourly Data (July 2021)
Hourly Data Report for July 12, 2021
TIME
LST
Temp Definition
°C
Dew Point Definition
°C
Rel Hum Definition
%
Precip. Amount Definition
mm

Wind Dir Definition
10's deg

Wind Spd Definition
km/h
Visibility Definition
km
Stn Press Definition
kPa
Hmdx Definition


Wind Chill Definition


Weather Definition


00:00 25.9 14.3 49 0.0 19 8   98.47 29   LegendNANA
01:00 24.5 13.7 51 0.0 20 8   98.46 28   LegendNANA
02:00 23.4 13.2 53 0.0 21 8   98.44 26   LegendNANA
03:00 21.8 13.4 59 0.0 20 7   98.49 25   LegendNANA
04:00 20.7 13.3 62 0.0 20 9   98.51     LegendNANA
05:00 20.3 13.2 64 0.0 19 7   98.45     LegendNANA
06:00 20.8 13.3 62 0.0 20 7   98.47     LegendNANA
07:00 21.2 13.5 61 0.0 20 10   98.41     LegendNANA
08:00 23.0 14.1 57 0.0 20 15   98.35 26   LegendNANA
09:00 23.6 14.1 55 0.0 20 12   98.32 27   LegendNANA
10:00 25.2 14.4 51 0.0 21 14   98.39 29   LegendNANA
11:00 23.4 16.0 63 0.0 21 11   98.51 28   LegendNANA
12:00 20.9 17.0 78 0.9 20 5   98.50 26   LegendNANA
13:00 24.2 17.3 66 0.0 23 3   98.41 30   LegendNANA
14:00 25.5 16.0 55 0.0 22 5   98.45 30   LegendNANA
15:00 27.1 16.1 51 0.0 15 3   98.36 32   LegendNANA
16:00 28.2 14.8 44 0.0 23 11   98.32 32   LegendNANA
17:00 29.0 11.5 34 0.0 27 8   98.31 31   LegendNANA
18:00 27.8 14.9 45 0.0 27 4   98.35 32   LegendNANA
19:00 27.4 12.0 39 0.0 33 7   98.36 30   LegendNANA
20:00 25.0 13.9 50 0.0 33 9   98.41 28   LegendNANA
21:00 23.7 15.3 59 0.0 33 10   98.50 28   LegendNANA
22:00 22.7 15.3 63 0.0 33 10   98.57 27   LegendNANA
23:00 20.7 13.4 63 0.0 34 8   98.60     LegendNANA

Notes on Data Quality.

Legend

  • E = Estimated
  • M = Missing
  • NA = Not Available*
  • [empty] = Indicates an unobserved value
Date modified: